THOR ABLESTAR DEB, 5265

Orbit data source: Space-Track

THOR ABLESTAR DEB, 5265 is space debris in LEO originally from a launch on Fri, 13 Aug 1965 UTC launched from the Air Force Western Test Range (AFWTR). Debris objects in space refer to the collection of defunct objects orbiting the Earth. Examples of debris include non-operational satellites, rocket bodies, and fragments generated from explosions, collisions, or faulty payload assembly.

Loading next visibility...
Identifier
5265, 1965-065Q
Orbit
LEO
Country
Flag of USUS
Related business
Manufacturer
Unknown
Mission
Spacecraft
Bus & Motor
Unknown
Mass
Unknown
Launch date (UTC)
1965-08-13 (61 years ago)
Launch vehicle
Unknown
Launch site
Air Force Western Test Range (AFWTR)
Object type
Payload
Rocket body
Debris
Shape & HBR
Unknown shape, 0.1 m
Radar Cross Section
Small (<0.1 m²)

Expand to show TLE details & history
Last TLE update: 8 hours ago

TLE from 8 hours ago
0 THOR ABLESTAR DEB
1  5265U 65065Q   26120.01821943  .00000212  00000-0  35708-3 0  9990
2  5265  90.1293 305.1423 0043115 129.4175 354.0054 13.42492657966156
Epoch: 2026-04-30T00:26Z
TLE epoch observation values (Epoch: 2026-04-30T00:26:14.158Z)
Latitude
56.7219°
Longitude
-99.19155°
Altitude
1,077.502 km
Speed
7.334 km/s
True Right ascension
08h 21m 21s
True Declination
56° 34' 15"
Sunlit
Object was in daylight at epoch
Visualization orbit readout
Latitude
Unknown
Longitude
Unknown
Altitude
Unknown
Speed
Unknown
Apparent Right ascension
Unknown
Apparent Declination
Unknown
Sunlit
N/A
Visualization observer readout
Local Sidereal Time
15:37:25
Azimuth
Unknown
Elevation
Unknown
Doppler factor
Unknown
Orbital elements
Apogee altitude
1,129.298 km
Perigee altitude
1,064.84 km
Semi-major axis
7,475.206 km
Eccentricity
0.00431
Inclination
90.1293°
RAAN
305.1423°
Arg. of periapsis
129.4175°
True anomaly
353.95352°
Mean anomaly
354.0054°
Eccentric anomaly
353.97949°
Mean motion
3.35821 °/min
Orbital period
107.2 mins
BSTAR
0.00035708
Loading maneuver chart data...
Computing Atmospheric mass density...
Loading historical data...
Loading historical data...
Loading historical data...
Loading historical data...
Loading historical data...
Loading historical data...
Loading historical data...

Documentation

Showing up to 5 results
|